Retour au catalogue

SL-18 DEB

ActifLEO
NORAD 22567·DEBRIS·🇷🇺 Russia

Lancé Mar 25, 1993 depuis Plesetsk Cosmodrome

Loading…

Prochains Passages (prochaines 24 heures)

TLE

FraisSource: Space-Track

Époque: Sep 14, 2026, 02:33 UTC

1 22567U 93014C   26257.10679234  .00000884  00000-0  22703-3 0  9990
2 22567  75.7493 308.7425 0146214 302.8381  76.5351 14.44926342746835

Suivez SL-18 DEB en temps réel avec AllMySat

Download on the App Store